Regional Weather Roundup
Issued by NWS

Home | Current Version | Previous Version | Graphics & Text | Print | Product List | Glossary On
Versions: 1 2 3 4 5 6 7 8 9 10 11 12 13 14 15 16 17 18 19 20 21 22 23 24 25 26 27 28 29 30 31 32 33 34 35 36 37 38 39 40 41 42 43 44 45 46 47 48 49 50
547
ASUS45 KCYS 130810
RWRWY

WYOMING REGIONAL WEATHER ROUNDUP
NATIONAL WEATHER SERVICE CHEYENNE WY
100 AM MST SAT FEB 13 2016

NOTE:  "FAIR" INDICATES FEW OR NO CLOUDS BELOW 12,000 FEET
WITH NO SIGNIFICANT WEATHER AND/OR OBSTRUCTIONS TO VISIBILITY.

WYZ001-130900-
YELLOWSTONE NATIONAL PARK

CITY           SKY/WX    TMP DP  RH WIND       PRES   REMARKS
LK YELLOWSTONE   N/A     28  21  75 CALM      30.20F
W YELLOWSTONE  NOT AVBL

$$
WYZ002>013-054>058-071-098>099-130900-
NORTHERN WYOMING

CITY           SKY/WX    TMP DP  RH WIND       PRES   REMARKS
JACKSON        FAIR      27  21  80 E3        30.19F
CODY           FAIR      54  23  30 W16G23    30.04S
GREYBULL       FAIR      31  26  82 CALM      30.05F
WORLAND        FAIR      31  28  89 SW8       30.06F WCI  23
SHERIDAN       FAIR      30  26  85 S3        30.01F
BUFFALO        FAIR      39  26  59 W7        30.04F WCI  34
GILLETTE       FAIR      30  28  92 VRB7G17   30.05F WCI  23
HULETT         FAIR      34  28  80 SW12      30.07F WCI  25
NEWCASTLE      CLOUDY    30  27  86 SE8       30.15F WCI  23

$$
WYZ014>020-022>026-101>103-130900-
CENTRAL WYOMING

CITY           SKY/WX    TMP DP  RH WIND       PRES   REMARKS
BIG PINEY      FAIR      20  17  88 E6        30.23F WCI  12
PINEDALE         N/A     21  19  93 W6        30.24F WCI  14
DUBOIS         FAIR      32  16  51 NW17      30.15F WCI  21
LANDER         FAIR      33  24  69 W9        30.10F WCI  25
RIVERTON       FAIR      35  27  72 SW12      30.11F WCI  27
CASPER         FAIR      39  23  52 SW13      30.10F WCI  31
DOUGLAS        FOG       29  28  96 SE8       30.13F VSB 1/2 WCI  21

$$
WYZ021-027>030-104>119-130900-
SOUTHERN WYOMING

CITY           SKY/WX    TMP DP  RH WIND       PRES   REMARKS
EVANSTON       FAIR      32  13  45 SW5       30.24F WCI  27
FORT BRIDGER   SUNNY     36  18  48 SW14      30.26F WCI  27
ROCK SPRINGS   FAIR      35  21  56 W9        30.23F WCI  28
DIXON          FAIR      16  12  83 CALM      30.28F
RAWLINS        FAIR      38  21  50 SW7       30.20F WCI  33
SARATOGA       FAIR      34  25  69 SE5       30.22F WCI  30
LARAMIE        FAIR      42  20  41 SW16      30.18F
CHEYENNE       FAIR      31  29  92 SW8       30.13F WCI  23
TORRINGTON     FAIR      30  28  92 SE12      30.14F WCI  20
PINE BLUFFS    FOG       30  30 100 S9        30.18F VSB 3/4 WCI  22

$$




USA.gov is the U.S. government's official web portal to all federal, state and local government web resources and services.